Location: Maccacari
(45.1333°N, 11.1333°E)
Time: 14:36:54
(UTC+00:00)

S-56A Canister/Altair - Pass Details

Date: 24 January 2021
Orbit: 631 x 2501 km, 38.9° (Epoch: 01 March)

Event Time Altitude Azimuth Distance (km) Brightness Sun altitude
Rises 03:03:49 0° 249° (WSW) 2,937 - -38.6°
Reaches altitude 10° 03:06:12 10° 241° (WSW) 2,003 - -38.2°
Maximum altitude 03:10:17 38° 173° (S) 998 - -37.5°
Exits shadow 03:13:20 18° 114° (ESE) 1,687 9.7 -36.9°
Drops below altitude 10° 03:14:55 10° 105° (ESE) 2,269 10.6 -36.7°
Sets 03:17:46 0° 98° (E) 3,389 11.7 -36.2°
